Simultaneous Nadir Overpasses (SNOs) Predictions

Prediction of SNOs between GOES-14 and AQUA Satellite Orbit:

Table of predicted SNOs for the next 14.0 days since TLE Epoch: 2/6/2021
Index Date Time (GOES-14) GOES-14 Lat,Lon AQUA Lat,Lon Distance(km) Time Diff (sec)
1 02/07/2021 08:23:31 -0.03,-104.37 -0.61,-101.76 298.07 80
2 02/07/2021 20:44:54 0.02,-104.14 -0.56,-106.93 317.41 80
3 02/09/2021 20:30:03 0.02,-104.14 0.06,-103.98 18.97 80
4 02/11/2021 20:17:52 0.02,-104.15 0.68,-101.02 355.73 80
5 02/12/2021 08:39:09 -0.02,-104.38 0.35,-106.19 205.63 80
6 02/14/2021 08:29:38 -0.02,-104.39 -0.28,-103.23 131.84 80
7 02/14/2021 20:51:00 0.02,-104.18 -0.88,-108.41 481.18 80
8 02/16/2021 08:17:27 -0.03,-104.41 -0.91,-100.28 469.64 80
9 02/16/2021 20:38:49 0.02,-104.19 -0.24,-105.46 143.64 80
10 02/18/2021 20:23:59 0.02,-104.20 0.39,-102.50 193.85 80
11 02/19/2021 08:45:15 -0.02,-104.41 0.65,-107.67 369.60 80
